Regional Weather Roundup
Issued by NWS Cleveland, OH

Home | Current Version | Previous Version | Graphics & Text | Print | Product List | Glossary On
Versions: 1 2 3 4 5 6 7 8 9 10 11 12 13 14 15 16 17 18 19 20 21 22 23 24 25 26 27 28 29 30 31 32 33 34 35 36 37 38 39 40 41 42 43 44 45 46 47 48 49 50
000
ASUS41 KCLE 211812
RWRCLE
OHIO REGIONAL WEATHER ROUNDUP
NATIONAL WEATHER SERVICE WILMINGTON, OH
100 PM EST TUE FEB 21 2017

NOTE: "FAIR" INDICATES FEW OR NO CLOUDS BELOW 12,000 FEET WITH NO
SIGNIFICANT WEATHER AND/OR OBSTRUCTIONS TO VISIBILITY.

OHZ001>008-015>018-024>027-034-035-043-044-211900-
   NORTHWEST OHIO

CITY           SKY/WX    TMP DP  RH WIND       PRES   REMARKS
DEFIANCE       LGT RAIN  54  46  74 S8        29.98R
FINDLAY        FAIR      63  44  50 W12       29.97S
TOLEDO EXPRESS CLOUDY    55  47  74 S8        29.96F
TOLEDO EXEC    PTSUNNY   58  46  64 W9        29.97F
LIMA           PTSUNNY   61  47  59 W8        29.98F
$$

OHZ009>014-019>023-028>033-038-089-211900-
   NORTHEAST OHIO

CITY           SKY/WX    TMP DP  RH WIND       PRES   REMARKS
CLE-HOPKINS    CLOUDY    65  40  39 SW9       29.99F
CLE-LAKEFRONT  FAIR      65  42  43 SW9       29.96S
CUY CO. ARPT   CLOUDY    64  43  45 SW9       29.98F
LORAIN-ELYRIA  PTSUNNY   64  43  46 W9        29.98R
ASHTABULA      FAIR      58  38  47 S8        29.98F
AKRON-CANTON   CLOUDY    61  41  47 SW14      29.99F
WOOSTER        FAIR      59  43  55 SW10      29.99F
MANSFIELD      FAIR      63  44  50 SW8       29.99F
YOUNGSTOWN     CLOUDY    60  38  43 S8        30.00F
$$

OHZ042-051>053-060>062-070>072-077>081-211900-
  SOUTHWEST OHIO

CITY           SKY/WX    TMP DP  RH WIND       PRES   REMARKS
CINC-COVINGTON CLOUDY    65  47  52 S8        30.00F
CINC-LUNKEN    FAIR      67  50  54 CALM      30.00F
HAMILTON       FAIR      63  49  60 CALM      30.01F
DAYTON         CLOUDY    61  45  55 SW9       30.00F
WRIGHT-PAT AFB FAIR      64  46  52 SW12      29.99F
DAYTON GENERAL FAIR      63  46  54 S7        29.99F
WILMINGTON     FAIR      65  48  54 SW7       30.00F
$$

OHZ036-037-039>041-045>050-054>059-063>069-073>076-082>088-211900-
  CENTRAL AND SOUTHEAST OHIO

CITY           SKY/WX    TMP DP  RH WIND       PRES   REMARKS
COLUMBUS       PTSUNNY   65  45  48 SW6       30.01F
OSU AIRPORT    FAIR      66  48  52 SW10      29.99F
BOLTON FIELD   SUNNY     64  48  55 SW12      30.01F
RICKENBACK AFB FAIR      62  45  53 S6        30.01F
NEWARK         FAIR      65  44  46 SW12      30.01F
MARION         FAIR      62  45  53 SW14      30.00F
LANCASTER      FAIR      67  45  45 W6        30.01F
ZANESVILLE     FAIR      67  42  40 SW8       30.01F
NEW PHILLY     FAIR      64  43  46 S10       30.01F
$$



USA.gov is the U.S. government's official web portal to all federal, state and local government web resources and services.